Torna al catalogo

STARLINK-35641

AttivoComunicazioniVLEO
NORAD 66167·PAYLOAD·🇺🇸 United States

Lanciato Oct 25, 2025 da Cape Canaveral Space Force Station

Loading…

Prossimi Passaggi (prossime 24 ore)

TLE

AggiornatoSource: CelesTrak SupGP

Epoca: Sep 14, 2026, 23:18 UTC

1 66167C 25240X   26257.97131944  .00040586  00000+0  11990-2 0  2570
2 66167  53.1570 259.6074 0001206 100.5499 297.4876 15.34374426    12

Traccia STARLINK-35641 in tempo reale con AllMySat

Download on the App Store